[[{"header":{"parameterUnit":"m.s-1","parameterCategory":1,"la1":30.2991,"la2":30.254,"lo1":-89.0895,"lo2":-89.0444,"dy":0.0017,"dx":0.0017,"nx":28,"ny":28,"refTime":"2023-08-25T03:00:00:Z","depth":0,"parameterNumber":2,"parameterNumberName":"U-component_of_WINDS"},"data":[0,0,0,0,0,0,0,0,0,0,0,0,0,0,0,0,0,0,0,0,0,0,0,0,0,0,0,0,0,0,0,0,0,0,0,0,0,0,0,0,0,0,0,0,0,0,0,0,0,0,0,0,0,0,0,0,0,0,-1.3541,-1.3541,0,-1.3537,-1.3537,-1.3537,-1.3476,-1.3474,-1.3473,-1.3471,-1.3469,-1.347,-1.3472,0,0,0,0,0,0,0,0,0,0,0,0,0,-1.3497,-1.3498,-1.3541,-1.3541,-1.3541,-1.3537,-1.3537,-1.3537,-1.3476,-1.3474,-1.3472,-1.3471,-1.3469,-1.347,-1.3472,0,0,0,0,0,0,0,0,0,0,0,0,0,-1.3507,-1.3499,-1.3541,-1.351,-1.3507,-1.3537,-1.3537,-1.3537,-1.3477,-1.3474,-1.3472,-1.347,-1.3468,-1.347,-1.3472,-1.3532,0,0,-1.3479,-1.3479,0,0,0,0,0,0,0,0,-1.3507,-1.3509,-1.3515,-1.3512,-1.3509,-1.3504,-1.3521,-1.3535,-1.3477,-1.3488,-1.3471,-1.3469,-1.3483,-1.3484,-1.3488,-1.3532,-1.3532,-1.3479,-1.348,-1.3481,-1.3482,0,0,0,0,0,0,0,-1.3506,-1.3509,-1.354,-1.3515,-1.3512,-1.3497,-1.3496,-1.3523,-1.3499,-1.3487,-1.3483,-1.3483,-1.3481,-1.3486,-1.3488,-1.3532,-1.3479,-1.3481,-1.3482,-1.3483,-1.3624,-1.3626,0,0,0,0,0,0,-1.3509,-1.3508,-1.354,-1.3539,-1.3502,-1.3499,-1.3498,-1.3508,-1.3498,-1.3495,-1.3485,-1.348,-1.3484,-1.3485,-1.3487,-1.3557,-1.3481,-1.3483,-1.3484,-1.3621,-1.3625,-1.3627,0,0,0,0,0,0,-1.3509,-1.3513,-1.354,-1.3523,-1.3525,-1.3503,-1.3515,-1.351,-1.3515,-1.3497,-1.3492,-1.3495,-1.3482,-1.3484,-1.3521,-1.3556,-1.3484,-1.3486,-1.3619,-1.3622,-1.3626,-1.3696,0,0,0,0,0,0,-1.3508,-1.3513,-1.3535,-1.3524,-1.3526,-1.3574,-1.3517,-1.3511,-1.3518,-1.3512,-1.3505,-1.3501,-1.348,-1.3518,-1.3523,-1.3557,-1.3487,-1.3615,-1.362,-1.3625,-1.369,-1.3702,-1.3711,0,0,0,0,0,-1.3506,-1.3556,-1.3537,-1.3541,-1.3554,-1.3576,-1.3577,-1.3552,-1.3521,-1.3544,-1.3532,-1.3501,-1.3551,-1.3523,-1.3528,-1.3563,-1.3613,-1.3619,-1.3624,-1.3686,-1.3699,-1.3711,0,0,0,0,0,0,-1.3573,-1.3554,-1.3532,-1.3579,-1.358,-1.3565,-1.3593,-1.3567,-1.3576,-1.357,-1.3538,-1.3537,-1.3579,-1.3574,-1.3543,-1.362,-1.3577,-1.3584,-1.3622,-1.3634,-1.3645,-1.3645,-1.3489,0,0,0,0,0,-1.3593,-1.3612,-1.3594,-1.3637,-1.3638,-1.3616,-1.3625,-1.3605,-1.3604,-1.3604,-1.3595,-1.3596,-1.3611,-1.3622,-1.3636,-1.3689,-1.3687,-1.3716,-1.3726,-1.3735,-1.3741,-1.3769,-1.3782,-1.3646,-1.3646,-1.3645,0,0,-1.3635,-1.3626,-1.3641,-1.3651,-1.3648,-1.3669,-1.3616,-1.3641,-1.3656,-1.3608,-1.3642,-1.3635,-1.3634,-1.3679,-1.3699,-1.3677,-1.3778,-1.3742,-1.3749,-1.3751,-1.3776,-1.3789,-1.38,-1.3649,-1.3649,-1.3648,0,0,-1.3722,-1.3717,-1.3753,-1.3751,-1.3748,-1.3732,-1.3741,-1.3731,-1.3724,-1.3758,-1.3721,-1.3739,-1.3767,-1.3767,-1.3771,-1.3858,-1.383,-1.3863,-1.3917,-1.3945,-1.3955,-1.3965,-1.3996,-1.4007,-1.3869,-1.3869,-1.3869,0,-1.3774,-1.3804,-1.3774,-1.3801,-1.3806,-1.3762,-1.3798,-1.3798,-1.38,-1.3805,-1.378,-1.3813,-1.3809,-1.3854,-1.3875,-1.388,-1.3889,-1.3864,-1.3956,-1.3965,-1.3973,-1.4003,-1.4015,-1.3873,-1.3873,-1.3873,-1.3872,0,-1.3869,-1.389,-1.3919,-1.3921,-1.393,-1.3961,-1.3936,-1.3948,-1.3927,-1.3914,-1.3949,-1.3942,-1.3954,-1.3963,-1.3943,-1.4005,-1.3991,-1.3962,-1.3918,-1.3991,-1.4018,-1.4029,-1.3879,-1.3878,-1.3877,-1.3876,0,0,-1.3999,-1.3983,-1.3995,-1.3995,-1.3988,-1.4004,-1.4033,-1.4043,-1.4054,-1.4056,-1.408,-1.4104,-1.4076,-1.4081,-1.4061,-1.4085,-1.4153,-1.4052,-1.4051,-1.4072,-1.4221,-1.4244,-1.4258,-1.4134,-1.4136,-1.4138,-1.4222,0,-1.4084,-1.4132,-1.4105,-1.4158,-1.4177,-1.4134,-1.4159,-1.4158,-1.4147,-1.4161,-1.4149,-1.4166,-1.4128,-1.4131,-1.4152,-1.4141,-1.4183,-1.4134,-1.4157,-1.4158,-1.416,-1.4272,-1.4296,-1.4375,-1.4232,-1.4234,-1.4235,0,-1.4189,-1.4195,-1.4249,-1.4237,-1.4244,-1.4267,-1.4274,-1.4289,-1.4286,-1.4276,-1.4281,-1.4254,-1.4282,-1.4238,-1.4276,-1.4243,-1.4251,-1.4246,-1.4249,-1.4251,-1.4202,-1.4277,-1.44,-1.4412,-1.4251,-1.425,-1.4249,0,-1.4279,-1.4301,-1.4335,-1.4337,-1.4324,-1.4342,-1.4337,-1.4332,-1.434,-1.4346,-1.435,-1.436,-1.4365,-1.4373,-1.435,-1.432,-1.4392,-1.4346,-1.4385,-1.4386,-1.4403,-1.4402,-1.4529,-1.4407,-1.4406,-1.4406,-1.4406,0,-1.4377,-1.4412,-1.4376,-1.4398,-1.4435,-1.4404,-1.4442,-1.4433,-1.4429,-1.4448,-1.4412,-1.4431,-1.4399,-1.4415,-1.4397,-1.4432,-1.4434,-1.4427,-1.4422,-1.4431,-1.4432,-1.4437,-1.4431,-1.4409,-1.4409,-1.4408,-1.4407,0,-1.4485,-1.4462,-1.4497,-1.4482,-1.4479,-1.4507,-1.4494,-1.4514,-1.4499,-1.4524,-1.4528,-1.4506,-1.4522,-1.45,-1.4515,-1.4502,-1.455,-1.4536,-1.4551,-1.4547,-1.4588,-1.4585,-1.4723,-1.4739,-1.4606,-1.4607,-1.4608,0,-1.4549,-1.4574,-1.4561,-1.4571,-1.4569,-1.4585,-1.4592,-1.4563,-1.4572,-1.457,-1.459,-1.4603,-1.4613,-1.4641,-1.4627,-1.4638,-1.4625,-1.4672,-1.4626,-1.4634,-1.4626,-1.4625,-1.4628,-1.4682,-1.4684,-1.4685,-1.4686,0,-1.4666,-1.4653,-1.4664,-1.4671,-1.4681,-1.4685,-1.4687,-1.4697,-1.4666,-1.4678,-1.4694,-1.4701,-1.4716,-1.473,-1.4737,-1.4733,-1.4705,-1.47,-1.471,-1.472,-1.4727,-1.4724,-1.4577,-1.4698,-1.4696,-1.4696,-1.4695,-1.4695,-1.4754,-1.4774,-1.4768,-1.4782,-1.478,-1.4782,-1.48,-1.4787,-1.4799,-1.4808,-1.479,-1.4811,-1.4807,-1.4813,-1.4812,-1.4828,-1.4807,-1.4822,-1.4825,-1.4829,-1.4836,-1.4724,-1.4829,-1.4829,-1.4828,-1.4828,-1.4828,0,-1.4869,-1.4862,-1.4875,-1.4878,-1.4889,-1.486,-1.4861,-1.4872,-1.489,-1.4889,-1.4898,-1.4917,-1.493,-1.4916,-1.4926,-1.4942,-1.4929,-1.4946,-1.4945,-1.4944,-1.4853,-1.4844,-1.4956,-1.4956,-1.4956,-1.4956,-1.4956,-1.4956,-1.493,-1.4963,-1.495,-1.4982,-1.4975,-1.4994,-1.4997,-1.4999,-1.4997,-1.5019,-1.503,-1.502,-1.5013,-1.5023,-1.5034,-1.5029,-1.5035,-1.5057,-1.5048,-1.4963,-1.4951,-1.4939,-1.493,-1.5058,-1.5058,-1.5137,-1.5138,-1.5139]},{"header":{"parameterUnit":"m.s-1","parameterCategory":1,"la1":30.2991,"la2":30.254,"lo1":-89.0895,"lo2":-89.0444,"dy":0.0017,"dx":0.0017,"nx":28,"ny":28,"refTime":"2023-08-25T03:00:00:Z","depth":0,"parameterNumber":3,"parameterNumberName":"V-component_of_WINDS"},"data":[0,0,0,0,0,0,0,0,0,0,0,0,0,0,0,0,0,0,0,0,0,0,0,0,0,0,0,0,0,0,0,0,0,0,0,0,0,0,0,0,0,0,0,0,0,0,0,0,0,0,0,0,0,0,0,0,0,0,-1.2538,-1.2539,0,-1.2583,-1.2584,-1.2584,-1.2611,-1.2611,-1.2611,-1.2611,-1.2657,-1.2658,-1.2659,0,0,0,0,0,0,0,0,0,0,0,0,0,-1.2474,-1.2475,-1.2538,-1.2539,-1.2539,-1.2583,-1.2584,-1.2584,-1.261,-1.2611,-1.2611,-1.2611,-1.2657,-1.2658,-1.2659,0,0,0,0,0,0,0,0,0,0,0,0,0,-1.2509,-1.2475,-1.2538,-1.2558,-1.256,-1.2583,-1.2584,-1.2585,-1.261,-1.2611,-1.2611,-1.2611,-1.2656,-1.2658,-1.2659,-1.2667,0,0,-1.2665,-1.2665,0,0,0,0,0,0,0,0,-1.2507,-1.2511,-1.2554,-1.2556,-1.2559,-1.2591,-1.2578,-1.2612,-1.261,-1.2591,-1.2611,-1.2611,-1.2635,-1.2638,-1.2647,-1.2669,-1.2671,-1.2665,-1.2666,-1.2667,-1.2667,0,0,0,0,0,0,0,-1.2504,-1.2509,-1.2556,-1.2555,-1.2558,-1.2564,-1.2569,-1.2585,-1.2612,-1.2593,-1.2595,-1.26,-1.2636,-1.2645,-1.2648,-1.2672,-1.2665,-1.2666,-1.2667,-1.2668,-1.2702,-1.2702,0,0,0,0,0,0,-1.2499,-1.2507,-1.2555,-1.2557,-1.2533,-1.2565,-1.2571,-1.2581,-1.2612,-1.2616,-1.26,-1.2601,-1.2642,-1.2646,-1.265,-1.266,-1.2667,-1.2668,-1.2669,-1.2702,-1.2702,-1.2702,0,0,0,0,0,0,-1.2497,-1.2503,-1.2553,-1.2533,-1.254,-1.2566,-1.2577,-1.2582,-1.259,-1.2617,-1.2622,-1.2604,-1.2642,-1.2647,-1.2662,-1.2662,-1.2669,-1.267,-1.2702,-1.2702,-1.2702,-1.268,0,0,0,0,0,0,-1.2495,-1.2502,-1.2505,-1.2533,-1.2541,-1.2565,-1.2577,-1.2582,-1.2593,-1.2595,-1.2622,-1.2626,-1.2643,-1.266,-1.2664,-1.2664,-1.2672,-1.2702,-1.2702,-1.2702,-1.2681,-1.268,-1.2678,0,0,0,0,0,-1.2493,-1.2498,-1.2505,-1.2511,-1.2545,-1.2565,-1.2569,-1.2588,-1.2593,-1.2596,-1.2613,-1.2625,-1.2661,-1.2661,-1.2666,-1.2667,-1.2702,-1.2702,-1.2702,-1.2682,-1.268,-1.2678,0,0,0,0,0,0,-1.247,-1.2502,-1.2511,-1.2524,-1.2541,-1.2569,-1.2574,-1.2585,-1.2602,-1.2603,-1.2626,-1.2631,-1.2644,-1.2657,-1.2656,-1.2675,-1.2683,-1.2684,-1.2666,-1.2665,-1.2663,-1.2659,-1.2673,0,0,0,0,0,-1.2466,-1.2479,-1.2507,-1.2516,-1.2524,-1.2547,-1.2557,-1.257,-1.2588,-1.2596,-1.2614,-1.2632,-1.2647,-1.2657,-1.2672,-1.2683,-1.2689,-1.2686,-1.2685,-1.2683,-1.2684,-1.269,-1.2689,-1.2701,-1.2701,-1.2701,0,0,-1.2459,-1.2478,-1.2485,-1.2512,-1.2527,-1.254,-1.2553,-1.2567,-1.2576,-1.2598,-1.2613,-1.2627,-1.2648,-1.2661,-1.2668,-1.2672,-1.2682,-1.2683,-1.2682,-1.2683,-1.269,-1.2689,-1.2688,-1.2701,-1.2701,-1.2701,0,0,-1.2453,-1.2468,-1.2478,-1.2492,-1.2515,-1.253,-1.2532,-1.2558,-1.2568,-1.2583,-1.26,-1.2611,-1.2637,-1.2652,-1.2662,-1.2661,-1.2672,-1.2665,-1.2656,-1.2662,-1.2662,-1.2661,-1.266,-1.2659,-1.2665,-1.2665,-1.2665,0,-1.2441,-1.2461,-1.2481,-1.2493,-1.2504,-1.2524,-1.2534,-1.2547,-1.2573,-1.258,-1.2585,-1.2617,-1.2633,-1.2649,-1.2649,-1.2657,-1.266,-1.2662,-1.266,-1.266,-1.2659,-1.2658,-1.2658,-1.2664,-1.2664,-1.2664,-1.2664,0,-1.2445,-1.2459,-1.2464,-1.2488,-1.25,-1.2511,-1.2532,-1.2541,-1.2553,-1.2568,-1.2583,-1.2603,-1.2622,-1.2627,-1.2639,-1.2645,-1.2647,-1.2656,-1.2664,-1.2657,-1.2656,-1.2656,-1.2663,-1.2663,-1.2663,-1.2664,0,0,-1.2425,-1.2461,-1.2462,-1.2473,-1.2499,-1.251,-1.2521,-1.254,-1.2548,-1.2565,-1.2575,-1.2596,-1.2604,-1.2616,-1.2629,-1.2635,-1.2631,-1.2643,-1.2643,-1.2639,-1.2639,-1.2632,-1.2631,-1.2639,-1.2639,-1.2639,-1.2637,0,-1.2422,-1.2444,-1.2462,-1.2476,-1.2489,-1.2508,-1.2518,-1.2535,-1.2548,-1.2561,-1.2577,-1.2591,-1.2601,-1.2608,-1.2614,-1.263,-1.2631,-1.2631,-1.2648,-1.2649,-1.2642,-1.2631,-1.2624,-1.262,-1.2637,-1.2637,-1.2637,0,-1.2422,-1.2438,-1.2453,-1.2477,-1.2483,-1.2492,-1.2511,-1.2522,-1.2542,-1.2551,-1.2565,-1.2579,-1.2591,-1.2598,-1.2616,-1.2615,-1.2623,-1.2632,-1.2633,-1.2635,-1.2642,-1.2632,-1.262,-1.2619,-1.2637,-1.2637,-1.2637,0,-1.2405,-1.2431,-1.2443,-1.2452,-1.2481,-1.2486,-1.2498,-1.2518,-1.2528,-1.2544,-1.2551,-1.2568,-1.2578,-1.2591,-1.2609,-1.2613,-1.2625,-1.2633,-1.2633,-1.2632,-1.2634,-1.2634,-1.2622,-1.264,-1.264,-1.264,-1.264,0,-1.2399,-1.2408,-1.2436,-1.2444,-1.2454,-1.2475,-1.2484,-1.2498,-1.2515,-1.2525,-1.2543,-1.2552,-1.2576,-1.2589,-1.2603,-1.2615,-1.2619,-1.2627,-1.2631,-1.2626,-1.2624,-1.2631,-1.2632,-1.264,-1.264,-1.264,-1.264,0,-1.2382,-1.2402,-1.2416,-1.2442,-1.2448,-1.2455,-1.2477,-1.2485,-1.2499,-1.2512,-1.2517,-1.254,-1.2555,-1.2575,-1.2597,-1.2606,-1.2616,-1.2622,-1.261,-1.2612,-1.261,-1.261,-1.2602,-1.2602,-1.262,-1.262,-1.262,0,-1.2377,-1.2384,-1.241,-1.2419,-1.243,-1.2443,-1.2453,-1.2474,-1.2484,-1.2506,-1.2511,-1.2528,-1.2542,-1.2566,-1.2584,-1.2601,-1.2607,-1.2603,-1.261,-1.2604,-1.2606,-1.2606,-1.2606,-1.2602,-1.2601,-1.2601,-1.2601,0,-1.2366,-1.2375,-1.2389,-1.2406,-1.2418,-1.2432,-1.2448,-1.2453,-1.2477,-1.2487,-1.2503,-1.2514,-1.2536,-1.2552,-1.2571,-1.2583,-1.2596,-1.2599,-1.2599,-1.2594,-1.2586,-1.2589,-1.2605,-1.2599,-1.2599,-1.2599,-1.2599,-1.2599,-1.2355,-1.2362,-1.2381,-1.2396,-1.2409,-1.2423,-1.2431,-1.2447,-1.2461,-1.248,-1.2491,-1.2506,-1.2525,-1.2552,-1.2563,-1.2575,-1.258,-1.2581,-1.2582,-1.2581,-1.2579,-1.2584,-1.2579,-1.2579,-1.2579,-1.2579,-1.2579,0,-1.2344,-1.2357,-1.237,-1.2391,-1.2403,-1.2413,-1.2431,-1.244,-1.2453,-1.2469,-1.2482,-1.25,-1.2516,-1.2536,-1.2553,-1.2558,-1.2564,-1.2562,-1.2562,-1.2564,-1.2574,-1.2572,-1.2557,-1.2557,-1.2557,-1.2557,-1.2557,-1.2557,-1.234,-1.2352,-1.2363,-1.2381,-1.2395,-1.2409,-1.2418,-1.2431,-1.2444,-1.2463,-1.2476,-1.2489,-1.2506,-1.2524,-1.2539,-1.2544,-1.255,-1.2545,-1.2552,-1.2561,-1.2563,-1.2565,-1.2563,-1.2546,-1.2546,-1.2541,-1.2541,-1.2541]}]]